Location: Raitis
(47.2167°N, 11.3833°E)
Time: 18:01:56
(UTC+00:00)

Sich 1 - Pass Details

Date: 03 March 2021
Orbit: 593 x 626 km, 82.5° (Epoch: 20 April)

Event Time Altitude Azimuth Distance (km) Brightness Sun altitude
Rises 17:27:32 0° 191° (S) 2,873 6.7 -5.0°
Reaches altitude 10° 17:29:44 10° 192° (SSW) 1,977 5.9 -5.4°
Maximum altitude 17:34:07 78° 279° (W) 641 3.3 -6.1°
Drops below altitude 10° 17:38:35 10° 7° (N) 2,008 5.6 -6.9°
Sets 17:40:50 0° 9° (N) 2,922 6.4 -7.3°
